Location: Bęczków
(50.8761°N, 20.8028°E)
Time: 21:03:23
(UTC+02:00)

Envisat - Pass Details

Date: 21 March 2019
Orbit: 764 x 766 km, 98.1° (Epoch: 22 October)

Event Time Altitude Azimuth Distance (km) Brightness Sun altitude
Rises 18:35:05 0° 181° (S) 3,218 6.1 -7.8°
Reaches altitude 10° 18:37:28 10° 188° (S) 2,297 5.5 -8.1°
Maximum altitude 18:42:20 47° 262° (W) 1,015 4.2 -8.9°
Drops below altitude 10° 18:47:15 10° 336° (NNW) 2,314 6.0 -9.6°
Sets 18:49:40 0° 342° (NNW) 3,245 6.7 -10.0°
